Powrót do katalogu

STARLINK-4256

AktywnyŁącznośćVLEO
NORAD 52994·PAYLOAD·🇺🇸 United States

Wystrzelony Jul 7, 2022 z Cape Canaveral Space Force Station

Loading…

Następne Przeloty (najbliższe 24 godziny)

TLE

ŚwieżeSource: CelesTrak SupGP

Epoka: Sep 15, 2026, 01:24 UTC

1 52994C 22076J   26258.05881944  .00040266  00000+0  11896-2 0  2580
2 52994  53.1570 308.8040 0001160  92.4357  70.2622 15.34371115    14

Śledź STARLINK-4256 w czasie rzeczywistym z AllMySat

Download on the App Store